Location: Unspecified
(0.0000°N, 0.0000°E)
Time: 12:17:48
(UTC+00:00)

Hubble Space Telescope - Pass Details

Date: 28 March 2020
Orbit: 536 x 540 km, 28.5° (Epoch: 01 April)

Event Time Altitude Azimuth Distance (km) Brightness Sun altitude
Rises 19:13:53 0° 222° (SW) 2,671 4.9 -17.2°
Reaches altitude 10° 19:16:23 10° 210° (SSW) 1,779 3.7 -17.9°
Enters shadow 19:19:53 27° 151° (SSE) 1,044 1.9 -18.7°
